GFSMW_sfc_temp_000.txt.gz
Temp
62 63 63 63 62 61 61 59 60 62 63 57 57 55 56 58 59 58 59 60 60 59 57 55 55 54 53 52 52 51 50 51 50 49 54 51 53 52 51 52 52 54 54
61 61 60 59 57 58 58 58 58 59 59 57 56 57 56 56 57 60 61 59 57 58 58 53 52 52 51 50 49 49 48 49 49 47 45 46 52 49 51 49 51 47 50
58 60 59 56 56 57 58 60 59 58 58 58 57 56 56 57 56 56 55 56 55 55 54 52 51 50 50 48 48 48 47 45 46 46 45 40 38 40 46 47 47 45 45
60 59 57 56 56 56 57 59 60 60 59 58 56 55 52 52 52 51 51 51 52 53 53 52 50 49 48 47 47 49 45 45 42 44 48 44 42 41 40 43 47 45 47
56 56 56 58 57 56 56 57 59 59 59 58 56 53 52 51 50 49 49 50 50 51 51 50 48 48 47 46 45 45 44 43 42 41 41 41 41 44 39 36 39 44 43
55 56 57 58 57 56 56 56 58 59 58 56 55 54 52 50 48 47 47 47 48 49 48 49 46 45 44 43 42 42 42 41 40 39 40 39 38 37 36 38 36 38 41
54 55 56 56 56 55 57 57 58 59 58 55 52 51 49 48 47 47 49 49 49 48 46 45 44 43 43 43 42 41 40 40 39 39 40 40 39 39 38 38 37 36 39
55 54 54 55 55 55 55 55 54 53 52 51 50 50 50 51 52 52 47 49 46 45 44 44 44 44 44 42 41 40 39 38 37 36 36 36 37 37 36 38 35 34 37
53 54 53 54 54 54 52 55 56 54 52 52 51 52 53 53 52 52 48 47 45 47 44 43 43 43 42 42 40 38 37 36 36 35 35 35 36 36 37 40 36 33 29
53 53 53 52 52 53 55 56 55 52 51 51 52 54 54 52 48 46 44 44 44 45 44 43 42 42 41 40 39 37 36 36 35 37 35 35 36 36 38 38 38 36 33
50 51 51 51 51 52 52 51 50 51 50 49 50 49 48 47 46 44 45 44 44 45 46 45 43 42 41 39 37 36 36 35 34 34 34 34 34 33 34 35 37 36 36
51 51 50 51 50 49 49 48 48 49 49 48 48 47 47 47 45 44 43 43 43 43 43 44 43 41 39 38 36 35 35 34 33 33 32 32 37 32 33 33 33 34 36
49 48 48 49 48 48 48 47 46 46 47 47 46 46 47 45 43 43 44 43 42 43 44 43 41 40 39 38 35 34 33 31 31 31 30 30 31 30 31 31 31 33 37
48 48 47 47 46 47 46 46 45 45 45 45 44 44 45 46 42 41 41 42 43 43 42 42 41 40 38 36 35 33 31 31 31 31 30 30 29 29 29 31 31 33 30
48 49 47 45 45 45 45 45 44 45 45 44 43 42 41 41 42 43 42 41 40 43 42 41 39 37 37 35 31 32 31 30 30 30 30 30 32 35 35 33 30 28 26
47 47 46 46 46 45 43 45 44 44 44 42 42 43 42 42 41 41 40 39 39 40 41 38 36 34 37 35 35 32 29 30 29 27 28 28 32 31 33 33 34 34 29
46 45 45 46 45 43 44 43 43 44 43 42 42 42 41 40 39 40 39 38 38 41 38 36 34 32 31 35 35 34 29 28 26 27 27 28 32 30 29 31 32 32 33
47 45 46 45 44 43 43 43 43 42 41 40 41 40 40 39 39 38 38 38 40 38 34 31 32 31 33 35 35 33 28 28 27 27 26 26 27 28 29 29 29 29 29
46 46 45 45 43 43 43 42 42 41 40 40 39 39 38 38 37 38 37 37 36 32 32 32 31 29 28 34 34 30 24 25 25 28 28 28 26 29 31 28 25 25 27
47 46 45 44 42 43 43 41 40 39 39 39 39 39 38 37 37 36 34 34 34 33 32 30 28 31 27 32 32 30 21 18 23 25 27 28 28 29 30 27 25 22 24
46 46 44 42 43 42 42 40 39 38 40 40 39 38 38 37 36 35 34 34 31 30 27 27 26 27 28 26 31 30 23 22 22 22 24 25 28 29 30 30 25 25 27
44 44 42 41 41 42 41 39 38 40 39 38 37 36 36 37 39 35 33 32 29 27 23 16 19 21 22 29 28 29 29 28 18 21 23 24 28 28 28 27 28 28 26
41 42 40 40 41 41 41 38 39 39 38 36 35 34 35 35 34 32 30 27 26 22 22 24 15 19 22 19 27 27 28 27 21 23 25 27 27 26 26 27 26 25 23
39 40 39 38 38 39 40 38 39 38 36 34 34 33 32 32 31 31 30 27 20 19 24 21 18 16 17 16 19 20 16 22 24 23 22 22 24 23 23 23 24 24 23
39 39 37 37 37 38 37 38 37 36 33 34 33 31 28 29 29 29 29 27 28 26 21 19 19 6 6 15 26 26 21 19 20 17 16 18 19 19 19 20 21 22 23
37 37 37 36 36 36 36 36 35 33 33 32 31 28 26 24 29 31 31 33 33 32 33 30 20 12 23 28 30 29 28 27 26 16 13 10 11 16 17 15 16 19 20

GFSMW_sfc_temp_003.txt.gz
Temp
56 58 58 58 60 57 58 58 58 58 58 55 55 54 53 54 54 56 56 55 55 56 53 51 51 51 50 49 49 48 48 49 47 47 51 49 49 50 48 48 47 50 51
57 57 57 57 55 56 58 57 57 57 57 55 53 53 53 53 57 58 57 55 54 53 54 51 50 49 48 48 47 46 46 45 45 43 42 40 46 45 49 46 47 44 46
54 56 56 54 55 56 56 58 57 57 57 56 55 54 54 53 53 51 50 51 52 52 51 50 48 47 46 45 45 44 43 42 43 43 41 38 35 38 43 46 44 42 43
56 56 55 54 55 54 55 56 58 57 58 56 55 54 53 52 49 48 48 49 50 49 50 48 47 45 44 43 44 44 41 41 39 41 46 41 39 35 35 40 45 43 45
55 54 55 56 54 54 54 55 57 58 57 56 54 52 50 48 47 46 47 47 47 47 48 47 47 45 43 42 41 41 40 40 38 38 38 38 38 38 36 34 37 41 41
51 54 56 56 55 53 52 53 55 56 56 54 52 50 48 46 45 45 46 46 46 46 47 48 45 43 42 41 40 40 40 38 38 37 40 38 38 37 36 35 36 35 39
54 56 56 52 52 50 51 54 53 51 50 49 48 47 46 46 47 47 46 48 48 47 45 43 42 41 42 41 40 39 38 37 35 35 35 36 35 36 34 35 35 34 37
52 50 50 50 50 51 50 51 51 50 50 50 49 48 49 48 48 51 50 46 44 43 42 42 42 42 42 41 40 38 37 36 34 34 34 33 34 34 34 34 33 29 30
49 50 50 50 50 50 50 50 50 50 50 50 49 50 51 50 48 47 44 42 42 45 42 43 44 43 43 41 39 38 36 35 34 33 33 32 33 32 32 33 34 32 26
49 49 49 49 50 50 49 49 49 48 48 47 47 49 47 46 45 44 43 42 43 46 45 45 42 42 43 42 38 36 36 35 33 34 32 32 32 32 31 30 32 32 31
47 48 49 50 49 48 48 46 46 46 45 45 45 44 45 45 44 42 42 42 43 43 42 44 43 43 41 40 38 36 37 35 33 32 31 31 32 30 29 29 30 30 30
47 49 49 49 49 46 45 45 43 43 43 44 43 43 43 43 41 42 41 42 43 40 40 41 42 40 40 38 37 36 34 32 31 31 30 31 35 29 28 28 29 29 31
46 47 46 47 45 45 45 43 43 42 42 42 40 40 40 40 39 39 40 41 41 42 41 40 39 39 40 38 36 34 32 31 31 31 30 29 29 27 27 28 28 29 32
46 46 45 46 46 45 43 42 42 42 42 41 40 39 39 39 39 39 39 40 40 39 38 38 38 39 38 36 35 33 31 31 31 31 30 29 28 27 27 28 29 31 29
46 46 44 45 45 42 42 42 42 42 42 41 40 39 39 39 39 38 38 38 39 39 38 37 38 37 36 35 32 32 31 30 29 30 30 29 31 34 33 31 27 29 28
48 48 47 46 44 43 42 43 42 41 41 40 39 40 39 39 38 38 37 40 38 37 36 36 34 33 36 36 36 34 29 30 29 27 28 28 31 31 32 32 32 31 28
46 45 44 44 43 42 42 40 41 41 40 39 40 39 38 37 36 37 37 36 35 35 35 33 32 31 31 36 36 36 31 29 26 27 27 27 31 29 28 29 31 31 32
45 44 43 43 42 41 41 41 41 40 39 38 38 38 37 36 36 35 35 35 38 35 31 30 31 30 32 35 34 31 26 27 26 26 25 25 26 27 28 27 27 27 28
44 44 43 43 41 41 41 40 39 38 38 38 37 37 37 36 35 34 34 34 33 31 30 31 30 28 27 33 32 29 23 24 24 26 26 27 26 28 30 27 26 26 27
45 43 42 41 40 40 40 38 38 38 37 37 37 37 36 35 34 34 32 32 31 31 31 30 27 30 25 31 31 29 21 16 22 23 25 27 27 29 30 26 24 22 25
42 42 41 39 39 39 40 38 37 36 38 38 37 36 35 34 34 33 32 31 30 29 26 27 25 26 27 25 30 29 20 20 22 22 22 24 27 29 29 28 25 25 27
40 40 39 38 39 39 38 36 35 38 37 36 35 34 34 34 35 31 30 29 27 26 23 15 18 20 21 28 27 29 28 28 16 20 22 23 28 28 27 26 27 27 25
38 39 38 38 38 38 37 34 36 36 36 34 33 33 33 32 31 30 27 26 25 20 21 23 15 18 22 19 26 27 28 26 17 20 24 26 26 25 25 26 25 23 22
36 37 37 35 34 36 36 35 35 35 33 33 33 34 32 31 30 30 30 27 20 20 24 20 18 15 17 15 17 19 14 20 21 18 18 19 22 20 20 20 22 22 21
37 36 34 34 34 35 34 34 34 32 31 32 34 32 31 29 29 29 28 27 28 27 22 19 19 6 4 14 23 23 16 12 16 10 9 14 14 16 17 16 17 19 20
35 34 34 33 34 33 32 32 32 32 31 31 31 29 31 28 29 30 28 33 32 32 33 31 20 13 22 27 29 29 28 27 25 11 7 9 7 10 15 14 12 14 15

GFSMW_sfc_temp_006.txt.gz
Temp
53 54 55 55 56 55 56 57 57 57 57 54 53 53 53 53 55 54 54 54 56 52 50 49 49 48 47 46 47 46 46 46 45 44 46 46 47 47 47 47 47 48 49
53 55 55 54 54 54 55 56 56 55 56 54 52 54 53 53 52 53 51 50 51 51 51 48 47 47 46 45 44 43 44 44 43 41 41 39 43 45 47 46 46 43 45
52 54 54 52 53 53 53 55 55 55 55 54 53 52 52 51 50 48 47 48 49 49 48 48 46 45 44 43 42 42 42 40 41 41 40 36 34 37 42 43 43 42 43
53 54 53 53 53 51 53 54 55 55 55 54 53 53 50 48 46 46 46 46 48 48 48 47 45 44 43 42 42 43 41 41 37 40 43 40 38 35 35 42 42 41 43
52 55 53 53 52 54 52 52 54 55 54 53 51 49 46 45 45 45 46 46 47 47 47 46 44 43 42 41 41 39 39 39 37 37 36 37 37 37 35 32 36 42 41
48 52 53 55 54 51 51 51 52 50 50 49 48 48 46 45 45 46 46 46 46 45 45 45 42 41 41 40 39 39 38 37 36 36 36 35 34 33 33 31 32 34 38
48 50 53 52 48 48 49 50 49 48 48 48 48 47 47 47 47 46 44 44 44 44 42 41 41 40 41 42 40 38 37 36 35 34 35 35 34 35 34 32 31 31 33
50 48 47 47 48 48 48 48 48 48 48 47 47 46 46 45 45 45 44 44 42 41 41 41 41 41 44 41 42 40 36 36 34 34 33 33 33 34 33 32 30 27 30
45 46 47 48 47 47 46 47 47 47 46 46 45 44 44 44 43 43 42 41 41 43 40 40 42 42 40 40 39 37 39 36 35 34 34 32 33 32 31 32 31 28 24
46 46 47 46 46 46 45 47 47 44 44 43 43 44 43 43 41 40 40 40 40 42 43 41 42 42 41 42 40 36 36 35 34 34 33 32 32 31 31 30 30 30 27
44 45 45 45 46 48 48 47 44 44 43 43 42 42 41 41 40 39 39 38 39 41 41 42 42 39 39 38 36 35 35 34 33 32 32 32 31 30 30 29 29 29 28
45 45 46 47 48 46 46 43 44 44 43 42 41 40 40 40 39 38 38 38 39 39 41 40 39 38 37 36 35 34 34 33 32 32 31 31 34 29 29 28 28 28 29
44 44 44 46 46 44 43 45 45 43 41 40 39 39 38 38 37 37 38 38 37 38 38 39 37 37 36 35 34 33 33 32 31 31 30 30 29 27 27 27 27 28 30
44 43 44 45 43 44 45 44 42 41 41 39 38 38 37 37 36 37 36 37 37 37 39 37 36 36 36 35 34 33 31 31 31 31 30 29 29 28 27 28 28 29 27
43 43 43 41 45 44 42 42 41 41 40 39 39 38 38 37 37 36 36 36 36 40 36 35 35 34 35 35 32 32 31 30 29 29 30 30 31 34 33 31 28 27 27
45 46 45 46 44 43 41 41 40 40 40 39 38 39 38 37 36 36 36 35 39 37 34 33 33 32 35 36 36 35 30 30 29 29 28 28 30 30 31 30 31 30 27
46 46 46 46 44 41 41 39 40 39 39 38 38 38 37 36 35 35 34 34 34 34 33 32 32 30 30 35 35 32 28 27 26 26 26 26 30 28 27 28 30 30 30
46 45 44 42 42 40 39 39 39 38 37 37 37 37 36 35 34 34 34 33 33 33 31 30 29 29 32 34 32 31 26 26 26 25 25 25 25 26 28 27 27 28 29
43 44 43 41 40 39 39 38 37 37 37 37 36 36 35 34 33 33 32 32 32 31 30 30 28 28 27 33 32 29 24 24 24 26 26 26 25 28 30 27 25 26 28
44 44 41 40 39 38 38 37 37 36 35 36 36 36 35 33 32 32 31 31 30 31 30 29 27 30 25 30 31 29 21 17 22 24 25 26 27 29 30 26 24 22 26
42 41 40 39 38 38 38 35 34 34 36 36 35 35 34 33 32 31 30 30 28 28 25 26 25 26 27 25 30 30 20 20 22 22 22 24 26 29 29 29 24 25 26
41 40 38 38 37 37 35 34 32 35 35 34 34 33 33 33 34 30 29 29 26 25 22 15 18 21 22 27 27 29 28 27 14 19 21 21 27 27 27 26 27 26 24
40 39 38 37 37 36 34 32 33 34 33 32 32 32 32 33 32 29 27 26 24 20 20 23 16 19 22 20 26 27 28 27 16 19 22 25 25 24 23 24 25 23 21
39 38 36 35 34 35 34 33 33 32 30 31 31 31 30 32 31 30 30 27 20 18 23 21 20 16 17 16 17 19 15 19 21 17 16 16 21 17 19 19 19 19 20
37 37 35 33 33 34 33 32 32 30 30 31 31 30 29 29 30 30 29 28 27 25 21 20 19 8 5 15 21 23 16 11 16 9 6 10 14 15 17 17 17 16 17
36 35 34 33 33 32 30 30 30 30 29 31 33 31 31 32 29 30 30 33 32 32 33 32 21 13 23 27 29 30 29 27 25 10 4 0 1 10 14 15 14 13 12

GFSMW_sfc_temp_009.txt.gz
Temp
60 62 61 63 63 64 65 64 64 63 64 63 63 63 63 62 59 65 63 62 63 63 62 63 63 62 62 60 61 62 59 60 58 59 60 61 61 60 61 61 60 57 58
60 60 61 63 65 64 64 63 64 65 67 68 67 66 64 63 63 62 60 61 60 61 62 61 62 61 61 59 58 58 58 58 56 54 54 53 57 60 59 59 57 55 56
60 60 60 61 62 62 63 64 65 66 66 65 65 64 63 63 62 61 61 61 61 63 62 61 61 60 59 58 56 55 54 54 55 53 52 48 47 49 56 55 56 54 54
61 61 60 60 61 60 62 64 64 65 63 63 64 63 64 62 59 60 61 62 60 60 60 59 58 57 57 54 54 54 53 52 50 53 54 51 49 44 43 52 53 52 51
61 61 61 63 62 61 61 61 61 61 61 61 61 61 59 59 60 60 58 58 58 58 58 57 55 54 55 52 52 51 51 52 51 50 49 48 48 48 43 40 45 49 51
60 60 61 62 60 60 60 59 60 59 59 60 59 59 58 58 58 57 57 57 58 58 57 55 54 53 52 52 52 51 49 50 50 51 49 47 44 43 42 40 42 42 47
58 59 60 59 59 58 58 58 59 57 58 57 57 56 56 56 55 55 55 54 56 57 56 53 52 52 51 50 52 51 50 50 50 48 48 48 46 46 45 42 41 40 44
58 58 57 57 57 56 57 57 58 56 56 56 56 56 56 56 56 54 54 54 53 54 53 52 51 50 51 51 49 50 49 49 48 47 46 47 47 46 44 41 38 35 39
56 56 56 56 56 56 55 56 56 56 56 55 55 53 54 53 52 52 53 52 52 52 51 50 50 51 50 50 50 49 48 48 47 46 46 46 46 45 44 43 41 36 30
54 54 54 54 55 55 55 54 56 55 53 54 54 53 52 52 52 52 51 51 51 51 50 50 50 50 51 50 49 49 48 46 47 47 45 45 44 43 43 42 41 39 35
53 53 54 54 54 54 55 54 53 55 54 54 52 52 52 51 51 51 50 50 49 50 50 50 49 50 49 49 48 47 46 45 46 45 43 42 43 42 42 42 41 39 38
53 54 53 53 53 54 54 51 54 54 53 52 51 51 51 50 50 49 49 49 48 49 48 47 47 47 47 47 47 46 47 45 44 43 42 41 42 40 41 40 38 37 38
52 52 52 52 53 52 52 53 52 52 52 52 51 51 49 48 49 48 48 48 47 47 47 47 43 45 46 46 46 44 43 42 42 41 40 39 39 38 38 38 36 35 35
51 52 52 52 52 52 52 51 51 51 51 51 50 49 48 48 48 47 47 47 46 46 46 44 44 45 45 45 44 43 42 41 40 40 39 38 37 36 36 34 33 33 31
50 50 50 51 52 49 51 51 51 50 50 49 49 48 48 48 47 46 46 46 45 46 45 43 44 43 43 43 42 42 40 40 39 38 38 37 35 33 33 33 32 31 29
50 51 51 51 50 51 52 50 50 49 49 48 47 48 47 47 46 45 44 45 45 44 44 43 42 40 41 36 36 37 38 37 36 34 35 35 33 33 31 31 31 31 30
51 51 51 52 52 52 50 50 50 49 47 46 47 46 45 45 45 44 44 44 44 44 43 41 41 40 39 35 34 32 37 35 34 33 33 32 33 32 33 32 32 31 31
51 51 52 52 52 52 50 48 48 47 45 46 46 46 45 44 44 43 43 43 43 43 42 41 40 39 37 34 33 31 35 34 33 33 32 31 31 32 31 31 31 32 33
52 53 53 51 49 50 48 47 46 45 45 45 45 45 44 43 43 43 43 43 42 42 41 40 38 37 36 32 32 32 32 31 31 32 32 31 31 30 30 30 29 30 31
51 50 49 48 48 46 46 45 44 43 43 43 43 44 44 43 42 42 42 42 42 40 40 37 36 32 34 31 31 32 31 28 29 31 31 29 28 29 30 29 28 25 28
47 45 47 47 46 45 45 43 42 42 43 42 43 43 43 42 42 42 42 41 40 38 35 33 34 33 33 32 30 30 30 29 29 29 29 30 27 29 29 28 27 26 28
46 46 45 45 44 44 43 42 42 42 42 41 41 41 42 41 41 40 41 39 38 36 33 30 31 33 31 29 29 29 29 29 27 27 28 28 27 27 26 27 26 26 26
45 46 45 43 43 43 42 41 41 40 39 39 40 40 40 40 41 40 40 38 37 35 33 33 32 33 32 32 28 28 28 29 27 28 27 26 25 25 25 25 24 23 25
45 44 43 41 41 41 40 40 39 39 38 38 38 39 38 38 40 40 40 37 35 34 34 34 33 33 32 32 32 31 31 27 28 26 27 23 23 22 23 25 25 24 23
40 43 41 40 40 40 39 39 38 37 36 36 38 36 35 36 36 38 39 36 38 37 36 35 34 31 30 31 30 30 31 30 28 24 25 25 24 24 24 24 24 23 22
41 40 40 39 38 38 37 37 37 36 35 35 37 35 35 35 36 35 37 34 34 32 33 33 31 32 30 29 30 30 31 29 27 26 24 22 21 21 22 22 22 22 20

GFSMW_sfc_temp_012.txt.gz
Temp
73 74 73 74 75 75 74 73 70 71 73 74 73 72 72 73 73 74 71 70 71 71 70 72 71 70 69 66 66 67 66 66 66 63 65 66 68 67 67 67 66 65 64
72 71 73 74 74 74 74 74 73 74 76 77 77 77 75 74 73 72 70 70 70 70 70 68 68 68 67 66 64 63 62 65 65 57 58 56 62 67 68 65 64 63 63
70 71 71 72 73 73 73 75 76 76 76 75 75 74 73 72 72 72 73 69 68 70 69 67 66 66 66 65 63 62 59 58 62 60 56 51 51 55 61 62 63 61 60
72 72 71 72 73 72 74 75 74 73 72 73 73 71 73 72 69 71 70 70 66 66 67 67 65 64 64 62 62 62 59 57 56 59 60 57 55 49 48 58 59 59 58
71 71 72 72 73 71 71 72 72 72 72 71 71 71 68 69 69 69 65 66 67 67 66 65 64 63 63 61 59 58 57 58 56 56 55 54 54 54 48 45 50 55 57
71 72 72 72 71 71 69 70 70 69 70 69 68 66 65 65 65 64 64 65 66 66 66 65 62 62 61 59 58 57 56 55 55 55 54 52 49 49 48 46 47 48 52
70 69 69 70 69 68 67 68 68 66 67 66 66 65 64 63 63 62 62 60 61 62 62 61 61 60 59 58 57 54 53 54 53 53 52 53 52 52 50 48 46 45 50
69 70 70 69 68 66 67 67 67 66 66 65 64 64 62 64 64 61 60 60 59 59 59 59 60 58 57 55 52 55 55 54 53 52 52 52 52 52 51 48 45 41 44
69 68 67 67 66 66 65 66 66 66 65 64 61 59 62 60 59 59 59 59 59 59 58 58 57 55 54 53 55 55 54 54 53 52 52 52 52 52 51 50 48 41 34
68 67 66 65 66 66 65 65 66 65 63 60 62 62 61 60 59 59 57 57 57 57 57 57 55 53 51 52 55 54 54 53 52 53 51 51 51 51 50 50 48 46 41
67 65 65 65 65 65 65 64 64 62 58 62 61 60 60 59 59 58 57 56 56 56 56 56 55 52 51 53 53 52 53 51 51 51 50 49 50 49 49 49 47 45 44
67 66 64 64 63 63 64 63 62 62 62 61 60 60 60 59 57 57 56 55 54 55 54 54 53 52 52 52 51 51 52 51 50 49 49 48 49 47 47 47 45 44 44
65 64 63 62 62 62 62 61 59 58 61 61 61 61 59 57 56 56 55 55 54 53 53 53 52 52 51 51 52 52 51 50 49 48 46 46 45 44 45 44 43 41 39
62 63 62 62 62 62 61 60 56 61 61 61 60 59 57 57 56 55 54 54 53 52 53 52 52 51 51 51 51 50 49 48 48 47 46 45 43 42 41 40 39 38 37
60 61 61 62 62 62 61 57 62 61 60 59 59 57 57 56 56 54 54 53 52 52 52 50 50 50 50 50 47 47 47 46 45 45 44 43 39 35 35 36 36 35 34
60 61 62 62 62 62 58 61 60 59 59 57 57 57 56 54 53 53 52 52 52 52 52 51 49 48 50 36 35 38 45 45 43 42 42 42 38 38 33 33 33 33 32
61 61 62 62 62 61 61 60 60 59 57 56 55 54 53 52 52 53 52 52 51 51 50 50 48 47 47 35 34 34 43 43 42 41 40 39 40 37 37 35 34 34 33
62 63 63 62 62 61 61 61 59 57 55 54 53 53 52 52 52 52 51 51 51 50 49 49 48 47 43 34 33 33 42 42 41 40 39 38 38 37 33 33 35 37 38
64 64 64 63 61 61 60 57 56 55 53 52 52 52 51 51 51 50 50 50 50 49 49 48 46 45 43 33 32 33 39 38 37 38 38 36 36 32 30 32 32 34 36
65 63 63 61 60 58 55 55 54 51 50 50 50 51 51 50 50 49 49 49 49 48 48 45 45 37 41 32 32 33 38 34 35 37 37 33 31 29 30 29 29 28 31
62 61 59 58 57 56 55 52 50 50 50 49 50 50 50 49 49 49 49 49 48 47 44 41 42 41 39 38 31 31 34 34 33 34 35 36 30 29 29 28 29 27 29
58 58 55 52 49 51 52 51 50 51 49 48 48 48 48 47 48 47 48 48 47 44 41 36 38 41 39 32 31 30 30 31 31 31 34 32 29 28 27 28 26 26 27
56 52 48 46 49 51 50 49 50 48 47 46 46 47 46 47 47 46 46 46 46 43 41 40 39 41 40 40 31 30 30 30 30 32 31 27 27 28 30 28 26 27 30
50 52 44 46 47 47 48 48 48 47 45 44 44 45 43 40 43 46 46 45 44 42 41 40 40 40 40 39 39 37 36 31 31 33 33 30 26 28 29 31 31 30 29
42 43 44 46 46 46 47 47 45 45 43 42 42 43 42 40 39 39 41 42 45 43 41 41 40 35 34 37 36 35 35 34 33 28 31 32 31 31 31 31 30 30 29
40 41 43 43 44 44 43 43 44 43 41 39 41 43 42 41 40 39 39 36 35 34 34 34 34 36 34 31 32 31 31 31 30 30 30 30 29 29 29 29 29 30 27

GFSMW_sfc_temp_015.txt.gz
Temp
81 81 81 81 83 83 82 72 71 69 72 75 75 74 74 76 76 77 74 74 74 74 72 73 72 72 70 68 68 67 64 65 67 65 64 64 66 68 70 70 69 66 67
78 78 79 79 79 79 79 71 73 73 78 80 79 79 78 77 77 75 73 73 72 73 72 69 69 69 68 66 65 64 62 63 64 60 59 54 59 64 65 66 65 64 66
77 76 77 77 77 76 75 76 77 79 80 79 78 77 76 74 74 73 74 71 70 71 70 69 68 66 66 64 64 63 61 58 61 61 57 51 50 54 60 61 63 62 62
78 77 76 76 77 77 79 79 79 78 77 78 78 75 76 72 72 72 72 72 71 69 70 69 67 65 64 63 63 65 60 58 56 59 61 59 56 49 47 57 58 59 59
77 76 76 77 77 76 76 76 77 76 76 76 75 74 71 71 71 72 68 69 70 69 69 68 65 64 63 63 61 60 59 59 57 55 55 54 55 54 50 45 50 56 58
76 77 77 76 75 75 74 73 74 74 74 73 71 69 67 67 67 66 65 66 66 66 66 65 63 62 62 61 61 60 58 55 54 56 55 52 50 49 49 46 47 48 52
75 75 74 74 73 72 71 72 72 70 71 70 69 68 66 65 64 63 63 62 62 62 62 61 61 61 61 61 60 55 53 52 52 53 52 54 52 52 50 48 46 46 50
74 74 74 74 72 71 71 72 71 70 69 68 67 66 65 61 64 63 62 62 61 61 61 60 60 60 60 56 54 53 52 53 54 53 52 52 52 53 52 48 45 42 45
74 74 75 74 72 71 70 70 71 70 68 66 65 62 61 61 62 62 61 61 60 61 60 59 59 59 56 54 54 51 53 52 54 52 52 52 52 52 52 51 49 44 36
74 74 73 72 72 71 71 70 70 69 67 64 62 61 61 63 63 62 59 59 59 59 58 58 58 58 54 55 52 54 55 52 53 54 52 51 51 51 51 50 49 48 43
74 73 72 71 71 71 69 69 69 67 64 64 63 62 62 62 63 61 60 59 58 58 57 57 56 56 57 55 54 53 52 50 52 52 50 50 50 49 48 50 49 48 46
76 74 72 70 70 68 68 67 67 65 65 64 63 63 63 62 61 60 59 58 57 57 57 56 55 55 55 53 52 51 52 51 50 49 49 48 50 47 48 48 46 46 46
76 74 71 69 68 67 67 66 65 66 64 62 64 64 63 61 60 59 59 58 57 56 56 56 55 55 54 52 52 51 52 51 50 49 48 46 46 45 45 44 43 43 43
74 73 70 68 68 68 67 66 64 64 64 65 65 63 61 61 60 59 58 57 56 55 55 55 54 53 53 53 53 52 50 50 49 47 47 46 45 43 40 39 39 39 37
71 71 69 68 68 67 66 66 64 63 64 63 63 62 61 60 59 58 57 56 54 55 55 54 52 51 52 52 48 48 48 47 46 46 47 46 41 37 36 37 36 35 34
70 70 69 68 67 66 66 65 63 63 63 61 60 61 60 59 57 56 55 55 55 55 55 54 53 49 51 35 36 37 45 46 46 44 45 44 42 41 37 36 35 34 32
70 68 68 68 68 68 66 63 63 63 61 60 60 59 58 56 55 55 55 55 54 54 53 53 52 49 48 36 35 34 43 45 44 43 42 42 43 39 40 37 36 36 36
70 70 70 68 69 69 66 63 65 63 60 59 58 57 56 55 55 55 55 54 54 52 52 52 51 50 42 35 34 34 41 44 43 42 41 40 40 37 33 33 34 36 37
72 72 71 70 69 67 67 63 61 59 57 55 56 56 55 54 54 53 53 53 52 52 51 52 50 49 43 35 34 33 41 41 40 41 41 39 37 32 31 31 31 33 35
72 71 71 70 68 66 65 60 59 57 56 55 54 54 55 54 53 53 52 52 52 51 52 50 49 39 44 34 34 34 39 37 37 39 40 35 33 30 30 29 28 27 31
71 71 70 67 66 64 59 57 54 53 54 54 53 53 54 53 52 51 51 51 50 49 47 45 45 45 42 40 34 33 35 36 35 36 37 38 32 31 30 29 29 28 29
68 66 63 61 59 58 55 50 48 53 52 52 51 52 52 50 50 48 49 49 49 47 45 39 42 43 43 35 33 33 32 33 32 33 36 35 31 30 29 30 30 28 28
64 62 57 53 52 48 46 47 50 51 50 49 48 49 49 48 48 46 46 46 48 46 43 41 39 41 42 40 34 32 32 31 31 34 34 30 31 31 31 32 30 28 32
58 57 51 45 43 45 46 50 48 47 47 45 44 45 45 44 43 44 46 47 46 43 41 40 40 41 43 43 40 35 35 31 32 33 34 33 31 31 29 31 34 33 32
49 46 41 40 42 47 48 48 47 46 43 41 43 43 42 43 44 45 44 42 44 42 41 41 41 38 36 39 38 37 37 36 34 31 32 33 33 32 33 33 33 33 32
41 39 40 44 45 45 45 45 46 44 41 40 41 42 42 43 45 43 41 39 37 37 36 35 36 38 36 34 34 34 33 32 31 31 31 31 30 30 31 31 31 32 31

GFSMW_sfc_temp_021.txt.gz
Temp
70 72 71 70 70 69 70 66 64 63 63 60 59 60 59 59 58 59 61 60 60 60 57 56 55 55 53 52 52 50 49 49 48 46 46 48 49 50 48 48 49 50 52
68 70 69 68 70 67 64 64 65 64 64 65 65 62 60 59 59 59 58 59 59 59 59 56 54 54 53 51 50 48 47 47 46 44 41 39 43 45 48 46 48 45 48
67 68 68 65 65 62 62 63 64 65 65 65 63 61 59 57 56 55 56 58 60 60 57 54 52 51 50 49 48 47 47 44 45 46 42 37 34 38 43 46 45 44 43
69 68 66 61 61 61 61 64 65 64 65 64 64 63 58 55 54 55 55 55 56 56 56 53 51 49 48 48 47 51 46 44 41 43 48 42 40 34 33 39 41 43 45
67 66 64 63 63 65 65 63 64 64 63 63 61 59 57 55 53 52 52 53 53 54 54 52 50 48 47 47 47 46 44 43 41 40 40 40 39 39 35 30 35 39 41
64 65 66 67 67 65 65 66 63 60 59 59 56 55 54 52 51 50 49 50 50 50 50 52 49 48 48 46 45 44 44 42 42 41 40 39 38 36 35 32 32 33 37
63 63 61 60 59 60 63 60 59 58 58 56 54 53 52 51 50 49 48 49 48 47 47 48 47 46 47 47 46 44 42 42 40 40 40 40 40 40 38 35 33 32 34
63 62 61 60 58 59 59 58 58 57 56 55 54 53 52 50 50 50 50 48 47 47 47 47 47 47 47 46 45 43 42 42 40 40 39 39 39 40 39 37 33 28 30
59 61 60 60 59 58 58 57 57 56 55 53 52 52 52 51 50 50 50 47 47 51 47 47 47 46 46 46 45 42 42 41 40 40 39 41 40 40 38 37 36 32 23
61 62 62 60 61 60 59 57 57 57 54 52 51 52 51 51 51 50 49 49 47 48 47 46 46 46 46 45 44 43 43 41 40 43 41 42 41 40 38 36 36 35 29
63 63 61 62 61 61 58 57 56 54 52 52 51 50 50 52 52 52 48 50 47 48 47 47 46 46 45 44 43 42 43 41 40 42 40 40 41 37 36 35 34 32 30
64 63 62 61 60 60 59 57 55 55 54 52 52 51 52 54 52 51 51 47 47 48 47 47 47 46 45 43 43 42 43 42 42 40 39 38 43 36 34 31 30 29 29
63 64 61 61 60 59 59 57 56 55 54 54 52 51 54 54 53 52 50 48 47 47 47 48 47 45 46 44 44 42 42 40 40 40 39 38 37 31 30 30 28 27 32
65 64 61 61 61 60 59 58 54 55 55 54 52 53 53 53 52 50 50 50 47 47 47 47 46 45 45 46 45 42 39 39 39 39 38 37 34 32 30 30 28 29 25
62 62 61 59 61 59 57 57 55 55 54 53 53 54 53 53 51 50 49 49 48 48 47 46 45 45 45 46 41 41 38 37 36 36 38 36 37 39 34 31 27 26 24
62 63 61 60 60 58 57 57 55 53 54 52 52 54 52 51 49 48 47 47 47 47 46 45 45 44 46 38 39 38 35 37 35 34 33 34 36 36 36 35 34 32 25
61 62 61 60 59 57 59 55 55 54 52 51 54 53 49 48 48 49 48 48 47 45 45 45 44 42 39 38 38 37 34 34 32 32 31 33 36 31 29 30 31 30 32
61 61 61 60 58 56 56 54 55 53 52 53 50 48 47 47 48 48 47 45 45 44 44 43 43 40 38 37 37 35 32 32 32 31 31 30 27 28 29 27 25 25 27
59 60 61 60 58 56 54 54 52 52 51 48 46 46 47 46 46 44 43 44 43 43 42 44 42 37 35 36 36 34 30 31 31 32 32 31 29 31 32 27 25 24 25
55 52 52 51 51 51 54 50 47 45 43 44 45 45 46 45 44 43 42 42 42 42 42 41 39 37 32 36 36 34 26 29 27 29 30 33 29 32 32 25 22 20 23
49 48 47 46 45 48 47 45 43 41 43 44 44 45 46 44 43 43 42 41 40 39 35 35 34 33 32 32 36 36 29 27 27 27 26 27 32 32 33 32 24 22 26
46 45 42 41 44 45 43 40 40 43 45 44 44 43 43 43 45 41 39 38 36 34 33 32 32 30 31 33 35 35 33 32 24 27 26 25 33 33 33 31 31 31 28
42 42 40 41 42 43 43 40 42 44 43 41 41 41 41 41 42 39 36 34 33 29 30 30 27 29 31 29 34 35 34 33 25 25 27 31 33 33 30 32 32 27 21
40 42 41 40 39 42 43 43 43 42 40 38 37 38 37 37 37 37 37 34 28 27 29 29 30 30 30 28 27 30 30 30 28 27 27 24 25 22 24 24 27 24 22
41 41 39 39 40 42 41 41 40 39 37 36 36 35 32 33 34 35 34 32 32 32 29 28 29 28 31 33 31 29 27 25 27 19 20 20 19 21 23 22 22 21 21
39 39 39 39 41 41 40 41 41 39 36 34 31 30 30 30 32 32 32 36 35 35 36 36 31 29 33 35 34 33 32 32 31 26 19 15 13 16 21 19 20 17 18

GFSMW_sfc_temp_024.txt.gz
Temp
69 70 69 69 67 64 65 64 61 61 61 60 58 56 56 56 56 56 58 57 57 57 55 53 53 52 51 49 50 47 47 46 45 44 44 44 45 45 45 45 45 46 48
66 67 67 67 66 64 64 63 63 61 63 63 59 59 57 56 56 55 56 56 56 57 56 53 51 51 50 49 48 47 45 44 44 42 39 37 41 43 45 43 45 42 44
65 65 65 65 64 63 62 62 61 62 62 63 60 57 56 54 53 52 53 55 56 55 53 51 49 48 48 47 45 45 45 42 42 42 41 35 33 35 40 41 40 41 40
67 65 62 62 63 62 60 62 63 63 62 60 60 60 59 57 52 52 52 53 54 52 52 51 49 47 46 45 44 47 43 42 40 40 45 40 39 33 31 37 39 40 42
66 64 60 62 62 61 61 61 61 61 61 60 60 59 54 52 51 51 50 50 50 50 51 49 47 46 45 44 44 42 42 41 40 39 39 38 37 35 33 29 33 37 39
62 62 61 62 60 61 60 58 59 58 59 59 56 55 52 51 51 48 47 47 47 47 48 48 46 45 45 44 43 42 42 40 40 39 38 38 36 35 33 30 31 31 35
60 60 59 60 60 59 59 62 60 54 54 53 52 53 53 53 51 48 47 47 48 48 45 45 45 44 44 45 43 42 41 40 39 38 38 38 38 38 36 33 31 30 33
61 61 59 57 57 58 59 59 60 55 53 53 52 52 51 49 49 50 49 48 47 47 48 47 46 45 45 44 43 41 40 40 39 39 38 38 38 38 38 35 31 27 29
57 58 57 58 57 56 55 57 58 57 55 52 51 51 50 50 50 50 49 48 49 51 45 45 45 45 45 43 42 40 41 40 39 38 38 38 38 38 37 37 35 32 22
57 58 59 58 59 58 56 55 56 56 53 51 51 52 52 51 50 50 49 49 49 50 47 47 45 44 44 43 42 40 41 40 38 40 39 39 41 39 37 36 35 34 30
59 59 60 60 60 59 56 56 55 53 52 52 50 49 51 51 51 50 50 49 49 49 48 47 45 45 45 44 42 41 40 40 39 39 39 39 38 36 35 33 34 32 32
60 61 60 59 58 58 56 55 55 54 54 52 50 50 51 51 52 50 50 48 49 47 47 46 45 45 44 43 41 41 41 39 38 38 38 38 42 35 33 30 29 29 28
60 60 58 58 58 58 57 56 55 54 53 52 51 49 49 50 50 49 47 46 47 45 44 45 45 45 43 43 43 42 40 40 40 39 39 38 35 32 29 29 28 27 31
60 59 58 58 59 59 58 55 53 53 53 52 51 50 50 50 48 47 46 45 44 43 44 45 45 45 44 44 44 41 39 38 38 38 36 36 34 32 30 29 27 28 25
58 57 56 57 57 56 55 53 53 53 53 52 51 49 50 48 46 45 45 45 45 46 45 44 43 43 44 45 42 40 37 36 35 35 36 34 35 38 33 30 26 25 24
58 59 57 56 55 55 54 54 52 52 52 51 51 51 48 47 47 46 45 44 45 47 46 44 42 42 44 41 40 38 35 36 34 33 33 33 36 36 36 35 34 30 24
56 56 55 56 57 55 55 54 52 52 51 51 52 48 48 47 46 45 44 45 45 44 44 43 42 41 40 38 39 38 34 34 32 32 31 33 34 32 30 31 31 29 31
57 56 55 55 54 53 55 52 51 50 50 50 48 47 47 44 45 43 43 43 43 42 40 40 42 40 40 38 38 36 33 32 31 31 30 30 29 28 29 27 26 26 26
48 47 47 49 50 51 50 49 48 47 45 43 45 45 43 43 42 42 41 41 41 41 40 41 40 39 36 37 37 34 30 30 31 32 32 30 28 31 33 27 26 25 25
46 45 45 46 45 45 46 43 42 42 40 42 43 43 44 42 40 40 40 41 41 40 39 39 38 38 34 36 36 34 27 29 28 29 30 34 30 32 32 25 23 20 24
43 44 43 41 41 43 43 41 41 40 43 44 43 42 42 41 41 40 41 40 37 35 33 33 33 33 32 31 36 36 30 29 28 28 27 27 33 33 33 33 24 22 26
41 42 40 40 42 43 43 41 40 42 42 42 42 41 41 42 43 39 37 36 34 31 31 27 30 29 31 33 35 36 34 31 27 28 28 27 32 33 33 32 31 32 28
39 41 40 40 42 43 43 41 42 43 41 41 40 38 39 38 38 35 34 32 31 26 29 28 25 28 28 30 34 35 35 33 27 27 28 30 32 33 31 33 32 27 22
39 40 41 40 39 42 42 40 40 39 38 36 36 35 34 34 34 34 33 31 27 26 29 29 28 27 28 29 31 31 32 32 29 27 29 25 26 22 22 22 26 24 22
37 37 36 38 39 39 39 39 39 38 36 35 34 33 29 31 31 32 31 31 31 31 30 30 29 25 25 29 33 30 28 30 29 25 20 19 19 21 22 21 22 22 20
36 36 36 37 38 38 38 39 39 37 35 34 31 30 29 28 30 31 31 34 35 35 34 35 32 31 33 34 35 35 33 32 30 25 21 21 19 20 21 19 19 17 17

GFSMW_sfc_temp_027.txt.gz
Temp
65 66 67 65 63 61 61 61 59 59 60 58 57 54 54 54 54 55 56 55 55 54 52 51 51 50 49 47 48 45 45 44 43 43 43 41 42 43 42 42 42 44 45
64 65 64 63 61 62 61 61 61 59 61 62 57 57 55 54 54 54 54 54 54 54 53 50 49 49 47 47 46 45 43 42 42 40 38 36 40 41 42 40 42 40 42
62 63 63 62 61 61 61 61 61 60 61 60 58 54 53 53 52 51 51 52 53 52 50 49 47 46 46 44 43 43 43 41 40 40 40 34 32 34 38 39 39 39 39
65 64 63 62 62 61 61 62 62 61 61 60 59 58 55 55 51 50 50 50 50 50 50 48 47 45 44 44 43 45 41 40 39 39 43 39 37 33 31 36 37 38 41
65 64 63 64 63 61 60 60 61 60 61 59 57 55 53 51 50 49 48 47 47 49 49 48 46 45 44 43 43 42 41 40 39 38 38 36 35 34 32 29 33 36 38
58 59 59 61 61 60 59 59 60 60 59 60 56 54 52 50 49 46 46 45 45 45 47 47 46 48 47 43 42 41 41 39 39 38 37 36 35 34 31 29 30 31 35
58 56 58 59 58 58 59 59 58 55 57 58 53 52 52 53 52 49 47 45 45 45 45 48 48 47 47 44 43 43 40 39 38 38 37 37 36 36 34 32 30 29 31
60 58 59 59 59 59 58 59 56 53 53 52 51 50 51 52 52 51 47 47 48 47 48 48 48 46 45 43 42 41 39 39 38 37 36 38 36 36 36 33 31 27 29
56 58 59 59 58 57 55 55 55 53 52 51 52 51 51 53 51 50 50 49 48 49 48 48 47 45 44 42 42 39 39 39 38 37 36 36 36 36 36 35 34 32 24
54 55 56 55 56 56 55 53 55 54 54 53 54 54 53 52 51 49 49 49 49 50 47 47 47 44 43 43 42 40 41 39 38 38 37 36 36 37 36 34 33 32 29
54 56 57 57 56 56 54 54 54 52 52 53 51 49 49 49 49 50 50 49 49 48 48 47 45 43 43 43 41 40 40 39 38 37 37 37 37 36 34 33 33 31 29
56 57 57 56 56 55 55 55 55 54 54 51 50 49 49 49 48 48 49 48 48 47 45 44 43 43 44 43 41 39 40 38 37 37 36 37 40 34 32 31 30 28 27
54 55 54 55 56 56 56 55 54 52 50 51 51 49 49 48 48 47 46 44 44 43 43 43 43 44 43 41 40 39 39 38 38 37 36 37 36 32 30 29 28 27 30
56 55 53 54 56 57 55 53 50 50 52 52 51 49 48 51 50 49 44 43 43 42 42 43 43 44 42 42 41 40 37 36 37 36 36 35 34 32 30 29 27 27 25
54 54 53 53 54 52 51 51 50 51 51 50 50 48 51 51 50 47 44 42 42 43 43 43 44 41 41 43 40 39 36 35 35 35 35 34 35 38 33 30 27 25 24
54 55 55 54 53 52 51 51 51 51 50 49 49 52 50 48 45 45 43 42 44 45 44 44 42 40 42 41 40 38 34 35 34 33 33 33 37 37 37 37 34 29 24
53 54 52 53 53 52 52 51 51 50 49 47 49 48 46 45 44 44 44 44 43 43 43 41 42 40 39 40 40 38 34 33 33 32 32 32 34 33 31 34 33 32 32
49 48 46 49 51 50 50 48 47 46 45 44 45 45 45 44 44 43 42 42 42 40 40 40 40 38 40 39 39 37 33 32 31 31 30 30 29 29 29 27 26 26 27
44 43 43 43 43 45 46 45 43 43 43 42 43 44 44 43 42 41 40 40 39 40 39 39 38 37 36 38 38 35 30 30 30 31 31 30 29 32 34 28 26 26 26
41 41 41 41 41 41 43 41 40 40 40 41 42 43 43 42 40 39 39 39 40 39 38 35 35 36 33 36 37 35 28 28 29 29 30 34 31 33 33 26 24 21 25
41 41 40 39 40 41 42 40 40 40 42 42 42 42 42 41 40 40 40 40 38 34 31 31 31 31 32 32 36 37 30 30 29 29 28 29 33 34 34 33 25 23 26
40 40 39 38 39 41 42 40 40 42 43 43 42 42 41 41 41 39 36 35 33 30 30 27 29 29 31 33 34 36 35 33 29 29 29 28 33 34 34 32 31 32 27
37 38 38 38 39 40 41 39 40 42 41 41 40 38 37 37 36 33 32 31 30 27 28 29 28 29 30 28 33 34 35 35 29 30 30 31 33 34 32 33 33 27 20
36 37 38 37 37 40 39 39 39 37 36 35 34 34 33 33 32 32 32 30 27 27 29 29 29 29 28 27 27 28 29 31 32 29 30 30 29 27 27 24 27 24 22
36 36 35 35 35 36 36 36 36 36 34 34 34 33 30 31 31 31 31 31 31 31 31 30 30 28 27 29 32 31 28 28 30 30 27 26 24 24 25 24 22 21 20
35 34 34 34 34 34 33 34 35 33 32 32 30 29 29 29 30 30 31 34 34 34 35 35 33 32 33 34 35 35 35 34 32 28 23 23 24 23 24 23 22 18 17

GFSMW_sfc_temp_030.txt.gz
Temp
62 62 62 61 61 60 60 60 58 57 58 57 55 53 53 53 53 54 55 55 54 53 51 49 49 49 48 47 47 45 44 42 42 43 42 42 42 42 42 42 43 44 45
59 61 60 60 61 61 61 60 59 58 60 61 56 55 54 53 53 53 53 53 52 51 51 48 47 47 46 45 45 45 42 41 41 40 38 36 40 41 42 41 42 41 43
59 61 61 60 60 60 60 60 59 59 60 60 56 52 53 52 51 50 50 51 51 50 49 48 46 45 45 44 43 43 43 41 40 40 40 36 34 35 39 40 40 40 40
61 62 61 59 59 60 60 61 60 59 60 59 58 56 55 52 50 49 48 48 49 48 48 47 45 45 44 43 44 44 42 41 39 40 42 39 38 35 33 38 38 39 41
60 60 61 62 61 58 59 60 59 59 59 59 59 55 53 52 50 48 46 46 46 47 47 46 46 44 44 46 46 43 41 40 39 39 39 37 36 35 33 32 35 38 39
58 59 60 60 58 57 57 58 59 59 59 59 56 54 51 51 50 46 45 45 44 45 46 46 44 46 47 45 44 41 41 40 39 39 37 37 36 35 33 31 31 32 36
56 55 56 58 58 57 58 59 60 59 58 57 55 54 55 53 52 49 46 44 44 44 44 45 46 46 47 46 43 41 41 39 38 38 37 37 37 37 35 33 32 31 33
59 57 58 59 58 58 58 59 59 59 56 57 55 55 55 53 54 49 48 48 48 47 48 48 46 47 46 43 43 42 39 39 38 37 36 37 37 36 36 35 32 30 31
55 58 57 58 58 58 58 59 57 58 55 54 53 53 52 53 50 48 48 47 49 49 48 48 47 47 45 45 43 42 40 39 38 37 37 36 36 36 36 35 34 32 29
52 54 56 57 58 59 59 57 56 54 54 52 51 51 50 50 50 49 47 47 48 49 48 47 47 45 45 44 43 41 40 38 37 38 37 36 36 35 35 35 35 33 31
52 53 55 56 56 55 53 53 52 51 50 50 49 48 48 48 49 49 49 49 49 48 48 47 46 45 44 43 41 40 39 38 37 37 37 36 36 35 34 34 33 32 31
52 52 53 53 52 53 52 52 50 50 49 48 47 47 48 49 48 48 50 49 49 47 47 46 45 44 44 43 41 39 40 38 37 37 36 36 39 35 33 32 32 30 30
51 52 52 51 52 52 51 51 50 49 48 48 48 47 47 47 48 50 49 48 47 46 45 45 44 44 43 41 39 39 39 37 37 36 35 36 35 33 32 31 30 29 31
52 51 51 51 51 52 51 50 49 48 48 48 48 47 46 47 48 49 47 46 46 44 44 44 44 43 44 42 41 40 37 37 36 36 35 35 34 33 32 31 29 29 27
51 51 50 50 51 51 50 49 48 47 48 48 48 47 46 46 47 47 45 44 44 45 44 44 44 44 43 42 40 38 36 35 34 34 34 34 35 38 34 31 29 27 26
50 51 50 50 51 50 49 49 48 48 48 47 46 47 46 46 44 45 44 44 43 44 44 43 42 41 42 41 41 38 35 34 33 33 33 33 37 37 38 37 35 30 26
47 47 48 50 50 49 49 47 47 47 46 45 46 45 45 44 42 44 44 43 42 42 42 41 40 40 41 40 39 39 34 33 33 33 33 32 34 34 32 35 35 33 33
44 43 42 43 43 45 45 44 45 44 43 42 42 43 43 44 44 44 42 41 41 40 40 39 40 40 40 39 39 38 33 32 32 32 32 31 31 30 30 29 28 28 29
40 39 39 40 40 41 41 41 41 41 41 40 41 42 44 43 42 40 40 40 39 39 38 40 39 37 35 37 37 36 31 31 31 32 32 31 30 33 35 29 27 27 28
39 38 39 39 39 39 41 39 38 39 38 39 40 42 42 41 40 39 39 39 39 39 39 37 35 35 32 35 37 36 28 29 30 30 31 35 31 33 34 29 26 23 27
38 39 38 37 37 39 40 38 39 37 39 40 40 42 42 41 40 40 40 39 38 36 32 32 31 31 32 32 36 37 30 30 30 31 31 31 34 35 35 34 26 25 27
37 38 37 36 37 38 40 37 37 39 40 41 42 41 41 41 41 37 35 34 32 31 30 28 30 30 31 33 34 35 35 33 29 30 30 31 33 35 35 34 32 31 27
35 36 37 36 37 38 38 36 37 41 39 37 35 35 36 35 34 32 32 31 30 26 28 29 29 30 31 30 34 35 35 34 30 30 30 32 33 34 32 34 33 30 27
35 36 37 35 34 36 36 35 35 35 34 33 32 32 32 32 31 31 31 29 27 27 30 30 30 30 31 28 29 29 29 30 31 30 31 29 29 30 30 29 31 30 27
35 35 35 35 33 34 33 33 33 33 32 32 31 30 29 29 29 30 29 29 30 30 30 30 30 30 30 33 33 32 29 28 29 24 27 28 27 26 26 27 27 27 25
35 36 34 33 31 31 31 31 32 31 30 30 29 27 27 26 28 29 29 33 34 35 35 35 33 33 35 35 35 35 36 34 32 28 27 27 26 25 25 25 26 26 25

GFSMW_sfc_temp_033.txt.gz
Temp
68 68 67 68 68 67 68 68 67 66 66 64 65 64 61 62 63 66 65 64 65 64 63 63 62 63 63 61 61 60 58 59 59 59 59 57 57 57 59 60 61 59 59
66 66 67 67 67 68 68 67 68 66 67 69 68 67 64 63 65 65 64 64 63 63 62 61 62 62 61 59 59 58 57 59 57 58 56 54 54 56 56 58 58 55 59
66 67 65 66 67 68 67 68 68 67 67 68 67 63 61 60 61 62 62 63 62 63 62 61 60 59 60 59 58 57 56 55 54 54 57 53 52 53 55 53 56 55 57
67 69 68 67 66 67 68 68 68 67 67 66 66 63 63 62 62 60 61 61 60 60 61 60 59 58 58 57 57 55 52 55 54 54 56 55 54 51 49 54 55 54 54
67 68 69 70 70 68 66 67 67 66 66 64 64 62 62 62 59 58 57 57 58 59 59 59 57 57 57 56 55 53 53 55 55 56 54 53 53 51 48 46 50 54 55
67 69 70 70 70 67 66 66 64 65 64 63 64 62 61 58 56 53 53 55 57 56 57 58 57 57 56 54 54 49 49 54 54 55 53 53 51 51 48 46 47 46 50
68 68 67 67 68 64 64 65 63 62 60 61 61 62 60 59 58 53 50 51 54 55 55 56 56 55 53 51 47 49 53 53 53 52 53 53 52 52 50 48 47 45 50
68 69 70 69 68 64 65 65 64 63 61 61 62 61 61 61 58 54 52 53 56 57 56 56 56 55 52 51 53 54 53 52 52 51 51 53 52 51 50 48 46 43 46
65 67 69 69 68 65 64 65 66 66 64 61 62 61 61 60 57 55 57 56 57 56 54 54 49 54 54 49 50 53 52 52 51 51 51 50 52 51 50 49 48 45 39
62 64 66 66 67 66 66 65 67 67 67 63 62 62 62 60 60 57 55 54 55 56 54 53 54 53 49 53 51 53 52 51 52 52 50 50 51 50 50 50 49 47 44
63 64 64 65 66 66 66 65 66 66 64 64 62 61 60 59 57 55 53 54 55 55 54 51 53 48 48 50 50 51 51 50 51 50 49 49 50 49 49 48 48 46 45
64 64 64 63 63 63 64 63 63 63 62 60 58 59 58 56 54 54 55 55 55 54 52 51 48 50 49 49 48 47 50 49 49 50 48 48 49 48 48 48 46 46 46
63 62 62 62 62 61 60 60 60 60 58 57 58 57 56 55 54 55 55 54 53 51 50 50 47 47 48 49 48 48 49 49 49 49 48 49 48 47 48 46 46 46 44
62 62 61 60 60 60 60 61 58 58 57 57 57 56 55 55 55 55 53 52 53 47 48 49 51 51 51 50 46 46 48 47 48 47 47 48 47 47 48 46 45 44 42
59 59 59 60 60 60 59 59 58 56 56 56 56 55 54 55 54 52 49 48 49 49 48 50 48 48 47 46 44 48 48 47 47 47 47 47 46 44 44 45 45 43 41
56 57 58 58 58 58 59 57 56 55 56 56 55 54 53 54 50 48 46 45 45 45 50 49 47 45 44 40 40 41 47 47 46 47 47 47 41 41 38 37 38 41 41
51 52 52 53 54 56 56 56 55 55 54 53 53 52 52 48 46 46 45 44 44 45 44 43 44 42 43 40 40 39 45 47 47 46 47 46 45 41 44 39 37 35 34
48 48 49 50 50 52 52 52 53 52 51 51 50 50 50 47 45 45 43 42 44 42 42 44 43 43 45 39 39 37 45 46 46 46 46 45 45 44 43 42 41 41 40
46 46 47 47 48 48 49 49 48 48 48 47 47 48 48 46 44 42 41 41 41 43 44 43 41 39 42 39 38 38 43 43 43 44 44 44 44 41 37 39 38 39 39
46 45 46 46 46 46 48 47 46 46 44 45 46 48 48 46 45 45 45 43 44 43 40 39 40 42 42 39 37 38 41 40 41 42 42 37 41 37 35 37 36 34 38
44 44 45 44 45 47 47 45 45 44 46 47 48 47 47 45 44 43 42 41 40 41 42 41 42 42 42 42 37 37 39 39 39 40 41 41 35 35 35 35 36 34 38
43 45 43 43 44 47 46 43 41 45 46 44 42 41 41 42 44 44 43 43 42 40 40 37 40 41 41 38 38 36 36 39 36 37 40 40 36 35 35 36 36 33 32
43 44 43 42 43 44 45 42 41 43 43 42 41 41 41 41 41 41 41 41 41 39 38 38 37 39 40 41 37 35 35 35 35 39 38 35 35 34 34 35 35 33 32
42 43 42 40 39 40 40 41 41 42 40 39 38 39 39 39 40 41 40 39 38 37 36 36 35 36 36 37 39 39 39 37 35 35 37 35 34 34 35 35 34 33 33
41 41 39 37 36 37 36 38 39 39 37 37 36 36 36 36 37 37 36 35 37 35 34 35 35 32 32 33 32 32 32 34 35 33 34 34 33 32 32 32 32 34 33
39 38 37 35 34 33 33 35 37 37 36 35 34 32 33 33 34 33 34 33 32 32 32 32 32 32 30 29 30 31 30 30 32 32 32 32 32 31 31 30 31 32 31

GFSMW_sfc_temp_036.txt.gz
Temp
77 77 76 75 74 74 73 74 73 73 72 75 74 75 73 74 75 76 76 74 75 74 73 73 71 72 72 71 69 69 67 68 69 66 67 66 64 64 67 68 69 66 66
76 75 76 76 74 75 74 74 75 74 74 78 77 77 75 75 76 76 74 74 73 74 73 71 71 72 70 68 67 67 67 69 67 64 65 62 63 63 63 66 64 63 65
76 76 75 75 76 75 74 75 77 77 76 78 78 76 75 71 70 72 72 72 72 73 72 71 71 70 70 68 66 66 64 64 64 63 63 61 60 63 64 60 62 61 62
79 80 78 77 76 76 77 77 78 78 78 77 76 72 72 69 68 69 72 69 67 70 72 70 68 68 69 67 66 66 65 63 62 63 64 62 61 59 57 61 60 61 60
80 80 81 80 80 79 77 77 78 78 78 76 74 71 70 72 71 70 69 67 66 68 70 67 65 65 67 66 65 63 62 64 58 63 62 60 61 59 56 54 59 62 62
80 81 83 83 81 80 77 75 75 77 76 71 66 66 68 69 66 67 66 65 65 64 63 62 63 66 66 64 62 60 61 59 62 64 62 60 59 58 57 54 55 55 58
80 80 80 81 81 80 76 75 75 69 71 67 63 65 67 67 63 65 64 60 55 55 56 61 64 65 65 62 61 60 57 60 61 59 61 61 60 60 58 55 54 53 57
81 81 82 82 82 80 78 76 74 67 63 62 65 66 67 68 66 68 59 54 53 55 60 62 65 65 56 59 58 59 54 57 60 58 59 60 59 59 57 55 53 49 53
81 81 83 83 81 80 77 75 74 72 69 64 63 64 65 66 68 68 58 57 58 61 62 63 61 58 59 57 59 56 58 59 59 58 58 58 59 58 58 57 55 50 45
77 78 79 80 82 81 79 76 77 76 73 69 66 67 66 67 68 68 62 61 60 64 62 61 60 56 55 57 57 52 59 58 58 58 57 57 58 57 57 57 56 55 50
77 76 77 78 78 79 78 76 76 77 77 75 70 67 68 68 67 66 62 61 61 62 57 60 58 55 57 56 54 59 58 56 56 57 56 55 56 56 56 56 55 54 53
77 78 76 75 75 75 77 76 76 77 78 77 74 70 68 66 64 62 61 60 59 60 60 61 57 52 56 58 55 55 55 53 52 56 56 55 57 54 55 55 53 53 53
77 76 74 74 74 74 74 74 74 74 75 74 72 68 63 62 61 59 59 58 59 59 61 61 57 52 54 55 56 52 48 47 52 55 55 55 55 53 54 54 52 53 53
74 76 74 73 73 72 71 71 70 70 68 67 67 65 63 60 59 58 58 58 57 59 59 51 50 50 56 54 52 47 46 49 51 52 53 53 53 53 53 53 52 52 51
70 71 72 73 72 70 70 70 68 67 66 66 66 64 63 64 63 62 61 60 58 55 50 48 49 48 50 50 46 46 45 46 48 52 53 54 52 48 49 53 53 52 50
67 68 69 70 68 68 69 66 65 64 65 65 64 63 61 61 59 57 54 50 48 48 47 46 49 49 47 39 39 41 43 46 50 50 53 54 48 46 41 40 40 45 49
63 64 65 65 66 66 66 65 64 64 63 62 61 60 60 58 56 52 49 47 45 47 45 46 48 47 50 41 40 39 42 45 49 51 51 52 54 48 51 41 38 37 37
61 62 63 63 63 64 63 63 63 62 60 59 58 58 57 55 54 52 48 46 46 44 44 46 49 50 47 40 39 38 44 49 50 51 51 51 52 53 50 49 48 47 47
59 60 61 61 61 61 61 61 60 59 58 56 56 56 55 53 52 50 48 48 50 50 50 47 47 45 42 39 39 39 47 48 48 50 51 51 51 46 41 46 46 46 47
59 58 59 59 59 59 60 58 57 56 54 54 55 55 55 54 52 51 50 51 52 48 45 42 41 41 47 42 39 40 46 45 46 48 49 42 44 41 38 44 43 41 45
56 57 58 56 57 58 58 55 54 52 54 55 55 54 53 51 50 48 47 47 48 49 48 47 48 49 47 48 40 39 42 43 44 44 46 48 39 37 37 38 42 41 45
55 56 54 54 56 57 56 54 52 53 52 49 46 44 46 48 51 50 51 50 50 47 46 44 45 48 48 41 41 38 37 38 39 39 43 45 40 38 37 37 37 37 36
55 55 54 52 54 55 54 50 49 50 48 49 49 49 49 49 49 49 48 49 48 46 44 43 42 44 44 45 37 35 34 36 36 38 38 36 35 35 36 35 35 35 38
54 54 51 49 48 50 51 50 50 51 49 47 47 47 45 46 47 49 47 46 43 41 40 40 39 40 41 40 36 36 37 35 35 36 39 37 34 33 34 35 37 38 39
52 52 49 47 46 48 47 49 49 49 46 45 44 43 43 44 44 44 42 40 40 35 35 36 36 33 32 30 30 30 32 32 32 30 33 35 37 37 38 38 36 35 36
50 48 47 45 44 44 44 44 46 47 45 42 41 39 40 41 42 41 42 31 31 31 30 30 31 31 29 27 27 29 29 28 29 31 33 32 33 34 37 37 35 34 33

GFSMW_sfc_temp_042.txt.gz
Temp
70 70 69 67 67 67 65 66 62 62 64 65 66 66 64 67 67 68 70 70 70 70 68 67 66 65 65 63 63 61 59 58 59 56 57 56 57 57 57 57 57 58 59
69 70 68 68 67 66 66 66 67 68 68 68 68 68 68 68 70 69 69 70 69 71 69 67 63 65 64 63 61 60 57 58 58 54 54 50 51 54 56 55 57 55 57
68 70 70 68 68 66 66 68 69 69 69 71 72 72 70 69 70 70 67 69 69 70 69 67 65 64 63 60 60 59 58 55 55 57 53 48 47 49 52 53 53 53 52
74 72 72 69 69 69 69 70 71 72 72 72 72 70 70 68 68 68 69 69 69 69 68 68 65 64 63 61 60 62 60 57 54 55 61 55 52 46 45 50 51 52 54
77 74 73 73 72 72 71 71 72 74 72 71 71 69 69 68 68 67 68 68 66 66 65 65 63 62 61 62 59 60 59 58 53 56 56 55 51 50 46 42 47 50 51
78 79 78 77 75 73 72 71 72 74 74 72 71 69 65 68 65 64 63 64 62 63 63 65 61 61 61 59 58 58 58 54 53 54 54 54 52 48 47 44 45 46 50
78 78 79 77 77 74 72 73 73 73 74 71 70 69 68 66 65 63 63 60 60 60 60 61 60 57 58 58 58 57 55 54 51 54 54 54 55 55 53 48 45 44 48
78 79 80 79 78 76 75 74 73 73 74 72 70 70 69 67 65 65 63 61 61 61 61 61 57 57 57 56 57 56 54 53 53 53 52 53 53 54 52 48 44 40 42
80 80 81 81 80 78 76 74 75 75 74 73 70 68 68 67 66 64 64 62 62 60 56 56 55 55 56 57 54 52 52 53 52 52 52 52 53 53 52 50 48 43 36
81 81 81 81 82 81 80 76 77 74 77 74 71 67 67 64 64 65 63 62 61 57 55 54 54 55 55 54 53 52 53 52 51 52 52 52 52 52 50 51 49 48 43
79 80 80 81 81 82 82 77 77 77 75 73 68 67 66 65 65 64 63 63 57 57 56 55 55 56 54 54 52 52 52 51 51 49 47 47 48 49 48 49 48 46 45
80 80 79 79 79 79 81 77 78 75 73 70 69 68 65 65 64 63 62 59 58 58 58 57 56 57 54 53 51 51 52 49 46 46 45 46 50 47 46 46 44 43 43
80 80 79 78 78 78 78 78 77 77 71 70 68 67 65 64 63 61 59 58 58 57 57 57 55 53 52 51 50 49 47 46 45 45 45 46 46 46 44 45 44 44 50
79 79 78 77 77 77 76 76 74 75 72 70 68 66 61 60 57 57 56 55 55 54 54 53 53 51 50 50 48 46 44 44 45 46 45 47 47 45 44 45 43 46 46
78 78 78 76 76 74 74 75 72 68 70 69 65 60 59 59 57 56 55 54 53 53 51 49 48 48 48 47 46 45 44 44 44 46 46 46 45 45 45 47 45 42 42
77 78 78 76 74 73 73 71 67 67 68 66 61 61 61 59 57 55 54 53 51 49 48 48 46 45 46 41 43 44 44 45 45 43 43 45 43 44 43 43 43 44 43
75 75 75 74 72 72 69 67 66 67 66 64 64 63 62 59 56 55 53 49 48 47 45 45 46 44 45 41 41 40 43 43 41 39 42 42 47 45 46 44 41 39 39
73 72 72 70 70 69 68 66 67 65 63 62 62 61 58 56 55 54 51 48 47 45 45 44 45 44 46 40 39 38 40 40 41 41 41 41 42 43 42 41 40 42 43
70 70 70 69 68 66 66 65 64 63 61 60 59 59 57 55 53 50 48 47 47 46 45 46 47 46 43 40 39 39 40 41 39 44 43 42 40 39 40 37 34 36 39
70 68 68 67 66 65 65 62 61 60 58 58 58 57 56 54 51 50 48 48 49 48 48 46 44 43 44 41 39 39 34 34 32 35 38 38 38 37 36 32 31 31 34
68 67 66 64 64 64 63 60 58 56 58 58 58 57 55 51 49 48 48 48 47 46 43 42 43 45 39 36 36 36 32 29 29 30 31 32 36 36 35 35 31 30 33
66 66 63 62 63 63 61 58 56 58 58 56 54 52 50 51 52 49 48 49 46 42 40 38 37 37 34 36 35 34 33 33 29 29 30 31 34 34 34 33 34 34 33
64 65 62 60 61 62 60 56 55 56 53 51 50 50 51 52 52 48 46 45 43 38 35 33 33 33 33 32 33 32 32 32 28 30 31 32 32 32 31 34 35 33 31
63 63 60 58 57 60 59 55 54 53 52 50 49 49 48 48 47 48 46 41 36 34 33 32 31 30 31 27 27 27 26 29 28 28 26 26 28 29 29 30 31 31 32
62 61 58 57 56 56 54 55 54 54 50 48 47 45 43 44 41 36 37 32 31 31 30 29 30 26 25 24 26 26 25 24 26 23 24 26 26 26 26 26 27 27 27
60 58 57 55 54 54 53 53 53 52 48 45 42 38 38 38 41 36 32 33 32 31 31 30 29 27 27 27 27 27 28 28 28 24 22 19 19 21 23 22 22 23 23